Retour au catalogue

STARLINK-31341

ActifCommunicationsVLEO
NORAD 59155·PAYLOAD·🇺🇸 United States

Lancé Mar 4, 2024 depuis Cape Canaveral Space Force Station

Loading…

Prochains Passages (prochaines 24 heures)

TLE

FraisSource: CelesTrak SupGP

Époque: Sep 14, 2026, 20:50 UTC

1 59155C 24044D   26257.86854167 -.00010100  00000+0 -36606-3 0  2570
2 59155  42.9994 122.3610 0001378 274.6212 132.1989 15.27561468    11

Suivez STARLINK-31341 en temps réel avec AllMySat

Download on the App Store